Home > Weather > Oss > Past weeks

Flag for Netherlands Weather for the Past 2 Weeks in Oss, Netherlands

Now
34 °F

Light rain. Broken clouds.


Feels Like: 29 °F
Forecast: 27 / 35 °F
Wind: 6 mph from North

Location: Volkel

Current Time: Feb 14, 2016 at 4:46:43 PM

Latest Report: Feb 14, 2016 at 3:55 PM


Visibility: 2 mi

Pressure: 29.27 "Hg

Humidity: 93%

Dew point: 32 °F

Location of OssLocation

Historic Weather in Oss — Graph

°F

Oss Temperature Yesterday

Maximum temperature yesterday: 41 °F (at 2:25 PM)
Minimum temperature yesterday: 27 °F (at 5:25 AM)
Average temperature yesterday: 35 °F

High & Low Weather Summary for the Past Weeks

 TemperatureHumidityPressure
High54 °F (Jan 31, 10:25 PM)100% (Jan 31, 3:55 PM)30.30 "Hg (Jan 31, 3:55 PM)
Low27 °F (Feb 13, 5:25 AM)57% (Feb 3, 1:25 PM)28.85 "Hg (Feb 9, 2:58 PM)
Average43 °F84%29.63 "Hg
* Reported Jan 30 3:25 PM — Feb 14 3:25 PM, Oss, Weather by CustomWeather, © 2016

Note: Actual official high and low records may vary slightly from our data, if they occured in-between our weather recording intervals... More about our weather records

Advertising

Oss Weather History for the Previous 24 Hours

 ConditionsComfort  
Time TempWeatherWind HumidityBarometerVisibility
3:25 PM
Sun, Feb 14
34 °FLight snow. Cloudy.6 mph93%29.27 "Hg1 mi
3:00 PM34 °FLight rain. Cloudy.6 mph100%29.24 "Hg2 mi
2:55 PM34 °FLight rain. Mostly cloudy.6 mph100%29.24 "Hg2 mi
2:25 PM34 °FLight rain. More clouds than sun.7 mph100%29.24 "Hg3 mi
1:55 PM34 °FLight rain. Cloudy.5 mph100%29.21 "Hg2 mi
1:25 PM34 °FLight rain. Broken clouds.6 mph100%29.21 "Hg2 mi
12:55 PM36 °FLight rain. Cloudy.6 mph93%29.21 "Hg2 mi
12:25 PM34 °FLight rain. More clouds than sun.5 mph100%29.18 "Hg2 mi
11:55 AM34 °FLight rain. Mostly cloudy.6 mph100%29.18 "Hg2 mi
11:25 AM34 °FDrizzle. Mostly cloudy.5 mph100%29.18 "Hg2 mi
10:55 AM34 °FLight rain. Cloudy.5 mph100%29.15 "Hg2 mi
10:25 AM34 °FLight rain. Mostly cloudy.6 mph93%29.15 "Hg2 mi
10:01 AM34 °FLight rain. Mostly cloudy.5 mph93%29.15 "Hg1 mi
9:55 AM34 °FLight rain. Mostly cloudy.3 mph93%29.15 "Hg1 mi
9:25 AM34 °FSnow flurries. Low clouds.3 mph93%29.12 "Hg1 mi
8:55 AM34 °FLight rain. Mostly cloudy.3 mph93%29.12 "Hg1 mi
8:25 AM32 °FLight rain. Low clouds.3 mph100%29.12 "Hg1 mi
7:56 AM34 °FLight rain. Low clouds.3 mph93%29.09 "Hg1 mi
7:55 AM34 °FLight rain. Mostly cloudy.3 mph93%29.09 "Hg1 mi
7:25 AM34 °FLight rain. Mostly cloudy.5 mph93%29.09 "Hg1 mi
6:55 AM34 °FLight snow. Mostly cloudy.5 mph93%29.09 "Hg1 mi
6:25 AM34 °FLight rain. Mostly cloudy.5 mph93%29.09 "Hg1 mi
5:55 AM34 °FDrizzle. Overcast.5 mph100%29.06 "Hg1 mi
5:25 AM36 °FDrizzle. Mostly cloudy.5 mph93%29.06 "Hg2 mi
4:55 AM36 °FDrizzle. Mostly cloudy.6 mph93%29.06 "Hg1 mi
3:55 AM36 °FDrizzle. Mostly cloudy.7 mph93%29.06 "Hg2 mi
3:01 AM37 °FDrizzle. Mostly cloudy.7 mph93%29.03 "Hg2 mi
1:59 AM37 °FDrizzle. Mostly cloudy.6 mph93%29.06 "Hg3 mi
1:55 AM37 °FDrizzle. Mostly cloudy.6 mph93%29.06 "Hg3 mi
1:25 AM37 °FFog.7 mph93%29.06 "Hg3 mi
12:55 AM37 °FFog.8 mph93%29.03 "Hg3 mi
12:25 AM37 °FFog.12 mph93%29.03 "Hg4 mi
12:02 AM37 °FFog.10 mph93%29.03 "Hg4 mi
11:25 PM
Sat, Feb 13
37 °FFog.9 mph93%29.03 "Hg4 mi
10:25 PM37 °FDrizzle. Mostly cloudy.13 mph93%29.03 "Hg3 mi
10:02 PM37 °FDrizzle. Mostly cloudy.14 mph93%29.03 "Hg3 mi
9:55 PM37 °FLight rain. Mostly cloudy.13 mph93%29.03 "Hg3 mi
9:25 PM37 °FLight rain. Mostly cloudy.14 mph93%29.06 "Hg3 mi
8:57 PM37 °FLight rain. Partly cloudy.14 mph93%29.06 "Hg4 mi
8:55 PM37 °FLight rain. Partly cloudy.15 mph93%29.06 "Hg4 mi
8:25 PM37 °FLight rain. Passing clouds.13 mph93%29.06 "Hg5 mi
8:02 PM37 °FLight rain. Partly cloudy.14 mph93%29.06 "Hg4 mi
8:00 PM37 °FLight rain. Mostly cloudy.13 mph93%29.06 "Hg4 mi
7:55 PM37 °FLight rain. Partly cloudy.13 mph93%29.06 "Hg4 mi
7:25 PM37 °FDrizzle. Mostly cloudy.14 mph93%29.06 "Hg5 mi
7:03 PM39 °FPassing clouds.12 mph87%29.06 "Hg6 mi
6:55 PM39 °FLight rain. Partly cloudy.13 mph87%29.06 "HgN/A
6:25 PM39 °FDrizzle. Mostly cloudy.12 mph87%29.09 "HgN/A
5:59 PM39 °FMostly cloudy.12 mph81%29.09 "HgN/A
5:55 PM39 °FOvercast.12 mph81%29.09 "HgN/A
5:25 PM39 °FMostly cloudy.12 mph81%29.09 "HgN/A
4:55 PM41 °FPartly sunny.10 mph76%29.09 "HgN/A
4:25 PM41 °FCloudy.13 mph70%29.09 "HgN/A
Weather by CustomWeather, © 2016

See weather overviewHow to use our weather pages